TimeMDT,TemperatureF,Dew PointF,Humidity,Sea Level PressureIn,VisibilityMPH,Wind Direction,Wind SpeedMPH,Gust SpeedMPH,PrecipitationIn,Events,Conditions,WindDirDegrees,DateUTC
12:15 AM,55.4,48.2,77,29.90,10.0,ESE,6.9,-,N/A,,Overcast,110,2013-05-17 06:15:00
12:35 AM,55.4,48.2,77,29.90,10.0,East,6.9,-,N/A,,Overcast,100,2013-05-17 06:35:00
12:55 AM,55.4,48.2,77,29.90,10.0,East,8.1,-,N/A,,Overcast,100,2013-05-17 06:55:00
1:15 AM,55.4,48.2,77,29.90,10.0,East,5.8,-,N/A,,Overcast,100,2013-05-17 07:15:00
1:35 AM,55.4,48.2,77,29.89,10.0,ESE,8.1,-,N/A,,Overcast,110,2013-05-17 07:35:00
1:55 AM,55.4,48.2,77,29.89,10.0,ESE,6.9,-,N/A,,Overcast,110,2013-05-17 07:55:00
2:15 AM,55.4,46.4,72,29.88,10.0,ESE,8.1,-,N/A,,Overcast,110,2013-05-17 08:15:00
2:35 AM,55.4,48.2,77,29.89,10.0,ESE,8.1,-,N/A,,Overcast,110,2013-05-17 08:35:00
3:15 AM,55.4,48.2,77,29.88,10.0,ESE,6.9,-,N/A,,Overcast,120,2013-05-17 09:15:00
3:35 AM,55.4,46.4,72,29.88,10.0,ESE,5.8,-,N/A,,Overcast,110,2013-05-17 09:35:00
3:55 AM,55.4,46.4,72,29.88,10.0,East,3.5,-,N/A,,Overcast,100,2013-05-17 09:55:00
4:15 AM,55.4,46.4,72,29.88,10.0,East,4.6,-,N/A,,Overcast,90,2013-05-17 10:15:00
4:55 AM,55.4,48.2,77,29.89,10.0,NNE,4.6,-,N/A,,Overcast,30,2013-05-17 10:55:00
6:15 AM,55.4,48.2,77,29.89,9.0,NE,5.8,-,N/A,,Overcast,50,2013-05-17 12:15:00
6:35 AM,55.4,48.2,77,29.90,10.0,NE,6.9,-,N/A,,Overcast,40,2013-05-17 12:35:00
6:55 AM,55.4,48.2,77,29.91,10.0,NE,3.5,-,N/A,,Overcast,50,2013-05-17 12:55:00
7:15 AM,55.4,48.2,77,29.91,9.0,ENE,4.6,-,N/A,,Overcast,60,2013-05-17 13:15:00
7:35 AM,55.4,48.2,77,29.90,10.0,ENE,3.5,-,N/A,,Overcast,60,2013-05-17 13:35:00
7:56 AM,55.4,48.2,77,29.90,10.0,ENE,3.5,-,N/A,,Overcast,60,2013-05-17 13:56:00
8:15 AM,55.4,48.2,77,29.90,10.0,Calm,Calm,-,N/A,,Overcast,0,2013-05-17 14:15:00
8:35 AM,57.2,48.2,72,29.90,10.0,SE,3.5,-,N/A,,Overcast,130,2013-05-17 14:35:00
9:15 AM,57.2,48.2,72,29.90,10.0,Calm,Calm,-,N/A,,Overcast,0,2013-05-17 15:15:00
9:35 AM,57.2,48.2,72,29.90,10.0,Calm,Calm,-,N/A,,Overcast,0,2013-05-17 15:35:00
9:55 AM,59.0,48.2,67,29.90,10.0,Calm,Calm,-,N/A,,Overcast,0,2013-05-17 15:55:00
10:15 AM,60.8,48.2,63,29.90,10.0,ESE,3.5,-,N/A,,Overcast,120,2013-05-17 16:15:00
10:35 AM,60.8,48.2,63,29.90,10.0,NE,3.5,-,N/A,,Overcast,50,2013-05-17 16:35:00
11:15 AM,60.8,48.2,63,29.90,10.0,North,4.6,-,N/A,,Overcast,10,2013-05-17 17:15:00
11:35 AM,60.8,50.0,68,29.90,10.0,Calm,Calm,-,N/A,,Overcast,0,2013-05-17 17:35:00
11:55 AM,60.8,48.2,63,29.90,10.0,Calm,Calm,-,N/A,,Overcast,0,2013-05-17 17:55:00
12:35 PM,62.6,50.0,63,29.89,10.0,Calm,Calm,-,N/A,,Overcast,0,2013-05-17 18:35:00
1:15 PM,64.4,50.0,59,29.89,10.0,SSE,3.5,-,N/A,,Overcast,160,2013-05-17 19:15:00
1:35 PM,64.4,51.8,64,29.88,10.0,NNE,3.5,-,N/A,,Overcast,30,2013-05-17 19:35:00
1:55 PM,64.4,51.8,64,29.87,10.0,NNE,4.6,-,N/A,,Overcast,20,2013-05-17 19:55:00
2:15 PM,66.2,51.8,60,29.88,10.0,East,3.5,-,N/A,,Overcast,90,2013-05-17 20:15:00
2:55 PM,66.2,51.8,60,29.87,10.0,SE,3.5,-,N/A,,Mostly Cloudy,130,2013-05-17 20:55:00
3:15 PM,66.2,51.8,60,29.87,10.0,Calm,Calm,-,N/A,,Mostly Cloudy,0,2013-05-17 21:15:00
3:35 PM,68.0,51.8,56,29.86,10.0,Calm,Calm,-,N/A,,Partly Cloudy,0,2013-05-17 21:35:00
3:55 PM,68.0,51.8,56,29.85,10.0,NNE,8.1,-,N/A,,Mostly Cloudy,30,2013-05-17 21:55:00
4:15 PM,66.2,50.0,56,29.85,10.0,NNE,3.5,-,N/A,,Mostly Cloudy,30,2013-05-17 22:15:00
4:55 PM,68.0,51.8,56,29.85,10.0,Calm,Calm,-,N/A,,Mostly Cloudy,0,2013-05-17 22:55:00
5:15 PM,68.0,51.8,56,29.84,10.0,ENE,9.2,-,N/A,,Partly Cloudy,60,2013-05-17 23:15:00
5:35 PM,66.2,50.0,56,29.83,10.0,NE,6.9,-,N/A,,Scattered Clouds,40,2013-05-17 23:35:00
5:55 PM,68.0,51.8,56,29.83,10.0,NE,5.8,-,N/A,,Scattered Clouds,50,2013-05-17 23:55:00
6:35 PM,68.0,51.8,56,29.84,10.0,ENE,5.8,-,N/A,,Scattered Clouds,60,2013-05-18 00:35:00
6:55 PM,66.2,51.8,60,29.84,10.0,NE,6.9,-,N/A,,Mostly Cloudy,50,2013-05-18 00:55:00
7:15 PM,66.2,50.0,56,29.84,10.0,NNE,6.9,-,N/A,,Mostly Cloudy,30,2013-05-18 01:15:00
7:35 PM,64.4,50.0,59,29.84,10.0,NNE,5.8,-,N/A,,Partly Cloudy,30,2013-05-18 01:35:00
7:55 PM,64.4,50.0,59,29.85,10.0,NE,6.9,-,N/A,,Clear,40,2013-05-18 01:55:00
8:15 PM,64.4,50.0,59,29.85,10.0,NE,5.8,-,N/A,,Clear,40,2013-05-18 02:15:00
8:35 PM,62.6,50.0,63,29.84,10.0,NNE,5.8,-,N/A,,Mostly Cloudy,20,2013-05-18 02:35:00
9:35 PM,60.8,50.0,68,29.86,10.0,NNE,4.6,-,N/A,,Overcast,20,2013-05-18 03:35:00
9:55 PM,60.8,50.0,68,29.86,10.0,North,5.8,-,N/A,,Overcast,10,2013-05-18 03:55:00
10:15 PM,60.8,50.0,68,29.86,10.0,NNE,5.8,-,N/A,,Overcast,20,2013-05-18 04:15:00
10:35 PM,60.8,50.0,68,29.84,10.0,North,6.9,-,N/A,,Overcast,360,2013-05-18 04:35:00
10:55 PM,60.8,50.0,68,29.83,10.0,NNE,5.8,-,N/A,,Overcast,20,2013-05-18 04:55:00
11:15 PM,60.8,50.0,68,29.83,10.0,NE,5.8,-,N/A,,Mostly Cloudy,40,2013-05-18 05:15:00
11:35 PM,60.8,50.0,68,29.82,10.0,NNE,6.9,-,N/A,,Mostly Cloudy,20,2013-05-18 05:35:00
11:55 PM,60.8,50.0,68,29.84,10.0,NNE,3.5,-,N/A,,Overcast,20,2013-05-18 05:55:00